Location: Campestrin
(46.4667°N, 11.7167°E)
Time: 09:15:49
(UTC+00:00)

Genesis I - Pass Details

Date: 18 April 2021
Orbit: 483 x 537 km, 64.5° (Epoch: 06 May)

Event Time Altitude Azimuth Distance (km) Brightness Sun altitude
Rises 20:19:04 0° 326° (NW) 2,671 8.3 -20.6°
Reaches altitude 10° 20:21:18 10° 332° (NNW) 1,785 7.0 -20.9°
Maximum altitude 20:25:12 49° 48° (NE) 695 3.7 -21.3°
Enters shadow 20:25:28 48° 62° (ENE) 704 3.7 -21.4°
